contact:dominique.lefevre@mio.osupytheas.fr, maurice.libes@osupytheas.fr, didier.mallarino@osupytheas.fr
Project:EMSO http://www.emso-fr.org/EMSO-France
Depth: 2436.0 m
Title:EMSO Ligure Ouest : Data MII capteur OXYGEN
DateTime,Latitude,Longitude,Optode-Type,Optode_Serial,Oxygen,Saturation_Oxygen,Temperature
DateTime,Latitude,Longitude,Optode-Type,Optode_Serial,µmol.l-1,%,degC
2019-07-06T00:02:11,42.805,6.029,4330,1995,193.927,59.307,13.289
2019-07-06T00:05:11,42.805,6.029,4330,1995,193.845,59.282,13.289
2019-07-06T00:08:11,42.805,6.029,4330,1995,193.867,59.289,13.289
2019-07-06T00:11:11,42.805,6.029,4330,1995,193.859,59.286,13.289
2019-07-06T00:14:11,42.805,6.029,4330,1995,193.837,59.280,13.290
2019-07-06T00:17:11,42.805,6.029,4330,1995,193.777,59.262,13.290
2019-07-06T00:20:11,42.805,6.029,4330,1995,193.799,59.268,13.290
2019-07-06T00:23:11,42.805,6.029,4330,1995,193.792,59.266,13.289
2019-07-06T00:26:11,42.805,6.029,4330,1995,193.831,59.278,13.289
2019-07-06T00:29:11,42.805,6.029,4330,1995,193.888,59.295,13.289
2019-07-06T00:32:11,42.805,6.029,4330,1995,193.861,59.287,13.289
2019-07-06T00:35:11,42.805,6.029,4330,1995,193.908,59.301,13.289
2019-07-06T00:38:11,42.805,6.029,4330,1995,193.933,59.309,13.289
2019-07-06T00:41:11,42.805,6.029,4330,1995,193.857,59.286,13.289
2019-07-06T00:44:11,42.805,6.029,4330,1995,193.836,59.280,13.289
2019-07-06T00:47:11,42.805,6.029,4330,1995,193.826,59.277,13.290
2019-07-06T00:50:11,42.805,6.029,4330,1995,193.779,59.262,13.289
2019-07-06T00:53:11,42.805,6.029,4330,1995,193.865,59.288,13.289
2019-07-06T00:56:11,42.805,6.029,4330,1995,193.877,59.291,13.289
2019-07-06T00:59:11,42.805,6.029,4330,1995,193.943,59.312,13.289
2019-07-06T01:02:10,42.805,6.029,4330,1995,193.859,59.286,13.289
2019-07-06T01:05:10,42.805,6.029,4330,1995,193.831,59.277,13.289
2019-07-06T01:08:10,42.805,6.029,4330,1995,193.833,59.278,13.289
2019-07-06T01:11:10,42.805,6.029,4330,1995,193.842,59.280,13.288
2019-07-06T01:14:10,42.805,6.029,4330,1995,193.775,59.260,13.289
2019-07-06T01:17:10,42.805,6.029,4330,1995,193.793,59.265,13.288
2019-07-06T01:20:10,42.805,6.029,4330,1995,193.838,59.278,13.288
2019-07-06T01:23:10,42.805,6.029,4330,1995,193.845,59.281,13.288
2019-07-06T01:26:10,42.805,6.029,4330,1995,193.887,59.293,13.288
2019-07-06T01:29:10,42.805,6.029,4330,1995,193.918,59.303,13.288
2019-07-06T01:32:10,42.805,6.029,4330,1995,193.839,59.278,13.288
2019-07-06T01:35:10,42.805,6.029,4330,1995,193.923,59.304,13.288
2019-07-06T01:38:10,42.805,6.029,4330,1995,193.893,59.295,13.288
2019-07-06T01:41:10,42.805,6.029,4330,1995,193.950,59.313,13.288
2019-07-06T01:44:10,42.805,6.029,4330,1995,193.972,59.320,13.288
2019-07-06T01:47:10,42.805,6.029,4330,1995,193.942,59.310,13.288
2019-07-06T01:50:10,42.805,6.029,4330,1995,193.897,59.297,13.288
2019-07-06T01:56:10,42.805,6.029,4330,1995,193.939,59.308,13.287
2019-07-06T01:59:10,42.805,6.029,4330,1995,193.910,59.301,13.288
2019-07-06T02:02:10,42.805,6.029,4330,1995,193.877,59.291,13.289
2019-07-06T02:05:10,42.805,6.029,4330,1995,193.883,59.293,13.288
2019-07-06T02:08:10,42.805,6.029,4330,1995,193.923,59.305,13.288
2019-07-06T02:11:10,42.805,6.029,4330,1995,193.994,59.326,13.288
2019-07-06T02:14:10,42.805,6.029,4330,1995,194.046,59.342,13.288
2019-07-06T02:17:10,42.805,6.029,4330,1995,193.979,59.322,13.288
2019-07-06T02:20:10,42.805,6.029,4330,1995,193.875,59.290,13.288
2019-07-06T02:23:10,42.805,6.029,4330,1995,193.846,59.281,13.288
2019-07-06T02:26:10,42.805,6.029,4330,1995,193.951,59.313,13.288
2019-07-06T02:29:10,42.805,6.029,4330,1995,194.002,59.328,13.288
2019-07-06T02:32:10,42.805,6.029,4330,1995,194.008,59.330,13.288
2019-07-06T02:35:10,42.805,6.029,4330,1995,193.982,59.322,13.288
2019-07-06T02:38:10,42.805,6.029,4330,1995,193.991,59.325,13.288
2019-07-06T02:41:10,42.805,6.029,4330,1995,194.001,59.328,13.288
2019-07-06T02:44:10,42.805,6.029,4330,1995,193.990,59.325,13.288
2019-07-06T02:47:10,42.805,6.029,4330,1995,193.967,59.318,13.288
2019-07-06T02:50:10,42.805,6.029,4330,1995,193.967,59.318,13.288
2019-07-06T02:53:10,42.805,6.029,4330,1995,193.957,59.315,13.288
2019-07-06T02:56:10,42.805,6.029,4330,1995,193.965,59.317,13.288
2019-07-06T02:59:10,42.805,6.029,4330,1995,193.969,59.319,13.288
2019-07-06T03:02:10,42.805,6.029,4330,1995,193.988,59.325,13.288
2019-07-06T03:05:10,42.805,6.029,4330,1995,193.946,59.312,13.289
2019-07-06T03:08:10,42.805,6.029,4330,1995,193.922,59.305,13.289
2019-07-06T03:11:10,42.805,6.029,4330,1995,193.939,59.310,13.289
2019-07-06T03:14:10,42.805,6.029,4330,1995,193.913,59.302,13.289
2019-07-06T03:17:10,42.805,6.029,4330,1995,193.960,59.317,13.289
2019-07-06T03:20:10,42.805,6.029,4330,1995,193.975,59.321,13.289
2019-07-06T03:23:10,42.805,6.029,4330,1995,194.019,59.335,13.289
2019-07-06T03:26:10,42.805,6.029,4330,1995,194.012,59.332,13.289
2019-07-06T03:29:10,42.805,6.029,4330,1995,194.003,59.330,13.289
2019-07-06T03:32:10,42.805,6.029,4330,1995,194.038,59.341,13.289
2019-07-06T03:35:10,42.805,6.029,4330,1995,194.108,59.362,13.289
2019-07-06T03:38:10,42.805,6.029,4330,1995,193.968,59.319,13.289
2019-07-06T03:41:10,42.805,6.029,4330,1995,193.930,59.308,13.289
2019-07-06T03:44:10,42.805,6.029,4330,1995,193.969,59.320,13.289
2019-07-06T03:47:10,42.805,6.029,4330,1995,193.934,59.310,13.290
2019-07-06T03:50:10,42.805,6.029,4330,1995,193.945,59.313,13.289
2019-07-06T03:53:10,42.805,6.029,4330,1995,193.937,59.311,13.290
2019-07-06T03:56:10,42.805,6.029,4330,1995,193.963,59.318,13.289
2019-07-06T03:59:10,42.805,6.029,4330,1995,193.901,59.300,13.290
2019-07-06T04:02:10,42.805,6.029,4330,1995,193.909,59.302,13.289
2019-07-06T04:05:10,42.805,6.029,4330,1995,193.914,59.303,13.289
2019-07-06T04:08:10,42.805,6.029,4330,1995,193.939,59.311,13.289
2019-07-06T04:11:10,42.805,6.029,4330,1995,193.970,59.320,13.289
2019-07-06T04:14:10,42.805,6.029,4330,1995,193.917,59.304,13.289
2019-07-06T04:17:10,42.805,6.029,4330,1995,193.876,59.291,13.289
2019-07-06T04:20:10,42.805,6.029,4330,1995,193.927,59.306,13.288
2019-07-06T04:23:10,42.805,6.029,4330,1995,193.952,59.314,13.288
2019-07-06T04:26:10,42.805,6.029,4330,1995,193.935,59.308,13.288
2019-07-06T04:32:10,42.805,6.029,4330,1995,193.938,59.308,13.287
2019-07-06T04:35:10,42.805,6.029,4330,1995,193.943,59.311,13.289
2019-07-06T04:38:10,42.805,6.029,4330,1995,193.895,59.297,13.289
2019-07-06T04:41:10,42.805,6.029,4330,1995,193.939,59.311,13.290
2019-07-06T04:44:10,42.805,6.029,4330,1995,193.912,59.303,13.290
2019-07-06T04:47:10,42.805,6.029,4330,1995,193.838,59.280,13.289
2019-07-06T04:50:10,42.805,6.029,4330,1995,193.882,59.294,13.290
2019-07-06T04:53:10,42.805,6.029,4330,1995,193.879,59.293,13.290
2019-07-06T04:56:10,42.805,6.029,4330,1995,193.890,59.296,13.290
2019-07-06T04:59:10,42.805,6.029,4330,1995,193.854,59.285,13.290
2019-07-06T05:02:10,42.805,6.029,4330,1995,193.849,59.283,13.289
2019-07-06T05:05:10,42.805,6.029,4330,1995,193.845,59.282,13.289
2019-07-06T05:08:10,42.805,6.029,4330,1995,193.834,59.278,13.289
2019-07-06T05:11:10,42.805,6.029,4330,1995,193.895,59.297,13.289
2019-07-06T05:14:10,42.805,6.029,4330,1995,193.917,59.304,13.289
2019-07-06T05:17:10,42.805,6.029,4330,1995,193.883,59.294,13.289
2019-07-06T05:20:10,42.805,6.029,4330,1995,193.870,59.290,13.289
2019-07-06T05:23:10,42.805,6.029,4330,1995,193.826,59.276,13.289
2019-07-06T05:26:10,42.805,6.029,4330,1995,193.782,59.262,13.289
2019-07-06T05:29:10,42.805,6.029,4330,1995,193.812,59.271,13.289
2019-07-06T05:32:10,42.805,6.029,4330,1995,193.843,59.281,13.289
2019-07-06T05:35:10,42.805,6.029,4330,1995,193.790,59.264,13.289
2019-07-06T05:38:10,42.805,6.029,4330,1995,193.756,59.254,13.288
2019-07-06T05:41:10,42.805,6.029,4330,1995,193.853,59.283,13.288
2019-07-06T05:44:10,42.805,6.029,4330,1995,193.829,59.276,13.288
2019-07-06T05:47:10,42.805,6.029,4330,1995,193.850,59.283,13.288
2019-07-06T05:50:10,42.805,6.029,4330,1995,193.795,59.265,13.288
2019-07-06T05:53:10,42.805,6.029,4330,1995,193.831,59.277,13.288
2019-07-06T05:56:10,42.805,6.029,4330,1995,193.869,59.288,13.288
2019-07-06T05:59:10,42.805,6.029,4330,1995,193.820,59.274,13.289
2019-07-06T06:02:10,42.805,6.029,4330,1995,193.773,59.259,13.288
2019-07-06T06:05:10,42.805,6.029,4330,1995,193.808,59.270,13.288
2019-07-06T06:08:10,42.805,6.029,4330,1995,193.799,59.267,13.289
2019-07-06T06:11:10,42.805,6.029,4330,1995,193.717,59.243,13.289
2019-07-06T06:14:10,42.805,6.029,4330,1995,193.734,59.248,13.289
2019-07-06T06:17:10,42.805,6.029,4330,1995,193.701,59.238,13.289
2019-07-06T06:20:10,42.805,6.029,4330,1995,193.698,59.237,13.289
2019-07-06T06:23:10,42.805,6.029,4330,1995,193.690,59.235,13.289
2019-07-06T06:26:10,42.805,6.029,4330,1995,193.652,59.223,13.289
2019-07-06T06:29:10,42.805,6.029,4330,1995,193.730,59.247,13.289
2019-07-06T06:32:10,42.805,6.029,4330,1995,193.710,59.241,13.289
2019-07-06T06:35:10,42.805,6.029,4330,1995,193.680,59.231,13.289
2019-07-06T06:38:10,42.805,6.029,4330,1995,193.720,59.244,13.289
2019-07-06T06:41:10,42.805,6.029,4330,1995,193.708,59.240,13.289
2019-07-06T06:44:10,42.805,6.029,4330,1995,193.750,59.253,13.289
2019-07-06T06:47:10,42.805,6.029,4330,1995,193.753,59.254,13.290
2019-07-06T06:50:10,42.805,6.029,4330,1995,193.661,59.226,13.289
2019-07-06T06:53:10,42.805,6.029,4330,1995,193.659,59.225,13.289
2019-07-06T06:56:10,42.805,6.029,4330,1995,193.656,59.224,13.289
2019-07-06T06:59:10,42.805,6.029,4330,1995,193.705,59.239,13.289
2019-07-06T07:05:10,42.805,6.029,4330,1995,193.711,59.239,13.287
2019-07-06T07:08:10,42.805,6.029,4330,1995,193.780,59.259,13.287
2019-07-06T07:11:10,42.805,6.029,4330,1995,193.821,59.273,13.288
2019-07-06T07:14:10,42.805,6.029,4330,1995,193.852,59.283,13.288
2019-07-06T07:17:10,42.805,6.029,4330,1995,193.812,59.271,13.289
2019-07-06T07:20:10,42.805,6.029,4330,1995,193.820,59.274,13.289
2019-07-06T07:23:10,42.805,6.029,4330,1995,193.804,59.269,13.289
2019-07-06T07:26:10,42.805,6.029,4330,1995,193.759,59.256,13.289
2019-07-06T07:29:10,42.805,6.029,4330,1995,193.701,59.237,13.289
2019-07-06T07:32:10,42.805,6.029,4330,1995,193.590,59.204,13.289
2019-07-06T07:35:10,42.805,6.029,4330,1995,193.657,59.224,13.289
2019-07-06T07:38:10,42.805,6.029,4330,1995,193.669,59.228,13.289
2019-07-06T07:41:10,42.805,6.029,4330,1995,193.639,59.219,13.289
2019-07-06T07:44:10,42.805,6.029,4330,1995,193.658,59.225,13.289
2019-07-06T07:47:10,42.805,6.029,4330,1995,193.632,59.217,13.290
2019-07-06T07:50:10,42.805,6.029,4330,1995,193.630,59.217,13.289
2019-07-06T07:53:10,42.805,6.029,4330,1995,193.739,59.250,13.290
2019-07-06T07:56:10,42.805,6.029,4330,1995,193.647,59.222,13.290
2019-07-06T07:59:10,42.805,6.029,4330,1995,193.705,59.240,13.289
2019-07-06T08:02:10,42.805,6.029,4330,1995,193.632,59.217,13.289
2019-07-06T08:05:10,42.805,6.029,4330,1995,193.630,59.217,13.289
2019-07-06T08:08:10,42.805,6.029,4330,1995,193.640,59.220,13.289
2019-07-06T08:11:10,42.805,6.029,4330,1995,193.555,59.194,13.290
2019-07-06T08:14:10,42.805,6.029,4330,1995,193.645,59.221,13.290
2019-07-06T08:17:10,42.805,6.029,4330,1995,193.659,59.226,13.290
2019-07-06T08:20:10,42.805,6.029,4330,1995,193.662,59.227,13.290
2019-07-06T08:23:10,42.805,6.029,4330,1995,193.597,59.208,13.290
2019-07-06T08:26:10,42.805,6.029,4330,1995,193.543,59.190,13.290
2019-07-06T08:29:10,42.805,6.029,4330,1995,193.574,59.200,13.289
2019-07-06T08:32:10,42.805,6.029,4330,1995,193.586,59.203,13.289
2019-07-06T08:35:10,42.805,6.029,4330,1995,193.581,59.202,13.289
2019-07-06T08:38:10,42.805,6.029,4330,1995,193.640,59.220,13.289
2019-07-06T08:41:10,42.805,6.029,4330,1995,193.586,59.202,13.289
2019-07-06T08:44:10,42.805,6.029,4330,1995,193.668,59.228,13.289
2019-07-06T08:47:10,42.805,6.029,4330,1995,193.716,59.242,13.289
2019-07-06T08:50:10,42.805,6.029,4330,1995,193.656,59.224,13.289
2019-07-06T08:53:10,42.805,6.029,4330,1995,193.623,59.213,13.289
2019-07-06T08:56:10,42.805,6.029,4330,1995,193.668,59.227,13.289
2019-07-06T08:59:10,42.805,6.029,4330,1995,193.669,59.227,13.289
2019-07-06T09:02:10,42.805,6.029,4330,1995,193.667,59.226,13.288
2019-07-06T09:05:10,42.805,6.029,4330,1995,193.714,59.241,13.288
2019-07-06T09:08:10,42.805,6.029,4330,1995,193.717,59.242,13.288
2019-07-06T09:11:10,42.805,6.029,4330,1995,193.643,59.219,13.288
2019-07-06T09:14:10,42.805,6.029,4330,1995,193.530,59.185,13.289
2019-07-06T09:17:10,42.805,6.029,4330,1995,193.551,59.191,13.288
2019-07-06T09:20:10,42.805,6.029,4330,1995,193.582,59.201,13.288
2019-07-06T09:23:10,42.805,6.029,4330,1995,193.565,59.195,13.288
2019-07-06T09:26:10,42.805,6.029,4330,1995,193.602,59.207,13.288
2019-07-06T09:29:10,42.805,6.029,4330,1995,193.613,59.210,13.289
2019-07-06T09:32:10,42.805,6.029,4330,1995,193.564,59.196,13.289
2019-07-06T09:35:10,42.805,6.029,4330,1995,193.542,59.189,13.289
2019-07-06T09:41:10,42.805,6.029,4330,1995,193.530,59.184,13.288
2019-07-06T09:44:10,42.805,6.029,4330,1995,193.593,59.204,13.289
2019-07-06T09:47:10,42.805,6.029,4330,1995,193.615,59.212,13.289
2019-07-06T09:50:10,42.805,6.029,4330,1995,193.540,59.189,13.289
2019-07-06T09:53:10,42.805,6.029,4330,1995,193.491,59.174,13.289
2019-07-06T09:56:10,42.805,6.029,4330,1995,193.512,59.180,13.289
2019-07-06T09:59:10,42.805,6.029,4330,1995,193.536,59.187,13.289
2019-07-06T10:02:10,42.805,6.029,4330,1995,193.557,59.193,13.288
2019-07-06T10:05:10,42.805,6.029,4330,1995,193.547,59.190,13.288
2019-07-06T10:08:10,42.805,6.029,4330,1995,193.511,59.179,13.288
2019-07-06T10:11:10,42.805,6.029,4330,1995,193.557,59.193,13.289
2019-07-06T10:14:10,42.805,6.029,4330,1995,193.525,59.183,13.288
2019-07-06T10:17:10,42.805,6.029,4330,1995,193.638,59.218,13.288
2019-07-06T10:20:10,42.805,6.029,4330,1995,193.693,59.235,13.289
2019-07-06T10:23:10,42.805,6.029,4330,1995,193.645,59.220,13.289
2019-07-06T10:26:10,42.805,6.029,4330,1995,193.548,59.190,13.289
2019-07-06T10:29:10,42.805,6.029,4330,1995,193.537,59.187,13.289
2019-07-06T10:32:10,42.805,6.029,4330,1995,193.541,59.188,13.288
2019-07-06T10:35:10,42.805,6.029,4330,1995,193.555,59.192,13.289
2019-07-06T10:38:10,42.805,6.029,4330,1995,193.583,59.201,13.289
2019-07-06T10:41:10,42.805,6.029,4330,1995,193.629,59.215,13.289
2019-07-06T10:44:10,42.805,6.029,4330,1995,193.552,59.192,13.289
2019-07-06T10:47:10,42.805,6.029,4330,1995,193.611,59.210,13.289
2019-07-06T10:50:10,42.805,6.029,4330,1995,193.695,59.236,13.289
2019-07-06T10:53:10,42.805,6.029,4330,1995,193.632,59.217,13.289
2019-07-06T10:56:10,42.805,6.029,4330,1995,193.669,59.228,13.289
2019-07-06T10:59:10,42.805,6.029,4330,1995,193.696,59.236,13.289
2019-07-06T11:02:10,42.805,6.029,4330,1995,193.630,59.217,13.289
2019-07-06T11:05:10,42.805,6.029,4330,1995,193.553,59.193,13.289
2019-07-06T11:08:10,42.805,6.029,4330,1995,193.593,59.205,13.289
2019-07-06T11:11:10,42.805,6.029,4330,1995,193.622,59.214,13.289
2019-07-06T11:14:10,42.805,6.029,4330,1995,193.608,59.210,13.290
2019-07-06T11:17:10,42.805,6.029,4330,1995,193.608,59.211,13.290
2019-07-06T11:20:10,42.805,6.029,4330,1995,193.616,59.214,13.291
2019-07-06T11:23:10,42.805,6.029,4330,1995,193.592,59.206,13.290
2019-07-06T11:26:10,42.805,6.029,4330,1995,193.615,59.213,13.290
2019-07-06T11:29:10,42.805,6.029,4330,1995,193.593,59.206,13.290
2019-07-06T11:32:10,42.805,6.029,4330,1995,193.621,59.215,13.290
2019-07-06T11:35:10,42.805,6.029,4330,1995,193.617,59.213,13.290
2019-07-06T11:38:10,42.805,6.029,4330,1995,193.550,59.193,13.290
2019-07-06T11:41:10,42.805,6.029,4330,1995,193.553,59.194,13.290
2019-07-06T11:44:10,42.805,6.029,4330,1995,193.569,59.198,13.290
2019-07-06T11:47:10,42.805,6.029,4330,1995,193.639,59.220,13.290
2019-07-06T11:50:10,42.805,6.029,4330,1995,193.588,59.204,13.290
2019-07-06T11:53:10,42.805,6.029,4330,1995,193.575,59.200,13.290
2019-07-06T11:56:10,42.805,6.029,4330,1995,193.575,59.200,13.289
2019-07-06T11:59:10,42.805,6.029,4330,1995,193.448,59.161,13.289
2019-07-06T12:02:10,42.805,6.029,4330,1995,193.415,59.151,13.289
2019-07-06T12:05:10,42.805,6.029,4330,1995,193.376,59.138,13.289
2019-07-06T12:08:10,42.805,6.029,4330,1995,193.387,59.142,13.289
2019-07-06T12:11:10,42.805,6.029,4330,1995,193.340,59.128,13.289
2019-07-06T12:17:10,42.805,6.029,4330,1995,193.376,59.136,13.288
2019-07-06T12:20:10,42.805,6.029,4330,1995,193.366,59.136,13.290
2019-07-06T12:23:10,42.805,6.029,4330,1995,193.405,59.148,13.290
2019-07-06T12:26:10,42.805,6.029,4330,1995,193.337,59.127,13.290
2019-07-06T12:29:10,42.805,6.029,4330,1995,193.373,59.138,13.290
2019-07-06T12:32:10,42.805,6.029,4330,1995,193.378,59.140,13.290
2019-07-06T12:35:10,42.805,6.029,4330,1995,193.453,59.163,13.290
2019-07-06T12:38:10,42.805,6.029,4330,1995,193.386,59.143,13.290
2019-07-06T12:41:10,42.805,6.029,4330,1995,193.314,59.121,13.290
2019-07-06T12:44:10,42.805,6.029,4330,1995,193.357,59.134,13.290
2019-07-06T12:47:10,42.805,6.029,4330,1995,193.318,59.122,13.290
2019-07-06T12:50:10,42.805,6.029,4330,1995,193.212,59.090,13.290
2019-07-06T12:53:10,42.805,6.029,4330,1995,193.247,59.101,13.290
2019-07-06T12:56:10,42.805,6.029,4330,1995,193.254,59.102,13.290
2019-07-06T12:59:10,42.805,6.029,4330,1995,193.276,59.109,13.290
2019-07-06T13:02:10,42.805,6.029,4330,1995,193.254,59.102,13.290
2019-07-06T13:05:10,42.805,6.029,4330,1995,193.308,59.119,13.290
2019-07-06T13:08:10,42.805,6.029,4330,1995,193.260,59.104,13.290
2019-07-06T13:11:10,42.805,6.029,4330,1995,193.323,59.122,13.289
2019-07-06T13:14:10,42.805,6.029,4330,1995,193.344,59.129,13.289
2019-07-06T13:17:10,42.805,6.029,4330,1995,193.321,59.122,13.289
2019-07-06T13:20:10,42.805,6.029,4330,1995,193.161,59.073,13.289
2019-07-06T13:23:10,42.805,6.029,4330,1995,193.164,59.073,13.289
2019-07-06T13:26:10,42.805,6.029,4330,1995,193.207,59.087,13.289
2019-07-06T13:29:10,42.805,6.029,4330,1995,193.288,59.111,13.289
2019-07-06T13:32:10,42.805,6.029,4330,1995,193.231,59.094,13.289
2019-07-06T13:35:10,42.805,6.029,4330,1995,193.239,59.096,13.289
2019-07-06T13:38:10,42.805,6.029,4330,1995,193.218,59.090,13.289
2019-07-06T13:41:10,42.805,6.029,4330,1995,193.294,59.113,13.289
2019-07-06T13:44:10,42.805,6.029,4330,1995,193.303,59.116,13.289
2019-07-06T13:47:10,42.805,6.029,4330,1995,193.246,59.098,13.289
2019-07-06T13:50:10,42.805,6.029,4330,1995,193.231,59.094,13.289
2019-07-06T13:53:10,42.805,6.029,4330,1995,193.172,59.076,13.289
2019-07-06T13:56:10,42.805,6.029,4330,1995,193.216,59.089,13.289
2019-07-06T13:59:10,42.805,6.029,4330,1995,193.268,59.106,13.289
2019-07-06T14:02:10,42.805,6.029,4330,1995,193.162,59.073,13.289
2019-07-06T14:05:10,42.805,6.029,4330,1995,193.198,59.084,13.289
2019-07-06T14:08:10,42.805,6.029,4330,1995,193.149,59.069,13.289
2019-07-06T14:11:10,42.805,6.029,4330,1995,193.173,59.077,13.289
2019-07-06T14:14:10,42.805,6.029,4330,1995,193.169,59.076,13.290
2019-07-06T14:17:10,42.805,6.029,4330,1995,193.150,59.070,13.290
2019-07-06T14:20:10,42.805,6.029,4330,1995,193.163,59.074,13.290
2019-07-06T14:23:10,42.805,6.029,4330,1995,193.154,59.072,13.290
2019-07-06T14:26:10,42.805,6.029,4330,1995,193.138,59.067,13.290
2019-07-06T14:29:10,42.805,6.029,4330,1995,193.146,59.070,13.290
2019-07-06T14:32:10,42.805,6.029,4330,1995,193.205,59.089,13.291
2019-07-06T14:35:10,42.805,6.029,4330,1995,193.210,59.091,13.291
2019-07-06T14:38:10,42.805,6.029,4330,1995,193.106,59.059,13.291
2019-07-06T14:41:10,42.805,6.029,4330,1995,193.145,59.070,13.291
2019-07-06T14:44:10,42.805,6.029,4330,1995,193.198,59.086,13.290
2019-07-06T14:50:10,42.805,6.029,4330,1995,193.136,59.065,13.289
2019-07-06T14:53:10,42.805,6.029,4330,1995,193.069,59.043,13.288
2019-07-06T14:56:10,42.805,6.029,4330,1995,193.105,59.056,13.289
2019-07-06T14:59:10,42.805,6.029,4330,1995,193.124,59.062,13.290
2019-07-06T15:02:10,42.805,6.029,4330,1995,193.092,59.052,13.289
2019-07-06T15:05:10,42.805,6.029,4330,1995,193.284,59.111,13.290
2019-07-06T15:08:10,42.805,6.029,4330,1995,193.201,59.086,13.289
2019-07-06T15:11:10,42.805,6.029,4330,1995,193.337,59.129,13.291
2019-07-06T15:14:10,42.805,6.029,4330,1995,193.293,59.115,13.290
2019-07-06T15:17:10,42.805,6.029,4330,1995,193.305,59.119,13.291
2019-07-06T15:20:10,42.805,6.029,4330,1995,193.299,59.117,13.291
2019-07-06T15:23:10,42.805,6.029,4330,1995,193.321,59.124,13.291
2019-07-06T15:26:10,42.805,6.029,4330,1995,193.139,59.069,13.291
2019-07-06T15:29:10,42.805,6.029,4330,1995,193.164,59.077,13.292
2019-07-06T15:32:10,42.805,6.029,4330,1995,193.168,59.080,13.293
2019-07-06T15:35:10,42.805,6.029,4330,1995,193.204,59.091,13.293
2019-07-06T15:38:10,42.805,6.029,4330,1995,193.170,59.079,13.292
2019-07-06T15:41:10,42.805,6.029,4330,1995,193.140,59.070,13.292
2019-07-06T15:44:10,42.805,6.029,4330,1995,193.195,59.087,13.292
2019-07-06T15:47:10,42.805,6.029,4330,1995,193.271,59.110,13.292
2019-07-06T15:50:10,42.805,6.029,4330,1995,193.283,59.113,13.292
2019-07-06T15:53:10,42.805,6.029,4330,1995,193.282,59.113,13.291
2019-07-06T15:56:10,42.805,6.029,4330,1995,193.190,59.087,13.293
2019-07-06T15:59:10,42.805,6.029,4330,1995,193.260,59.108,13.293
2019-07-06T16:02:10,42.805,6.029,4330,1995,193.260,59.108,13.292
2019-07-06T16:05:10,42.805,6.029,4330,1995,193.188,59.085,13.292
2019-07-06T16:08:10,42.805,6.029,4330,1995,193.119,59.064,13.292
2019-07-06T16:11:10,42.805,6.029,4330,1995,193.088,59.054,13.292
2019-07-06T16:14:10,42.805,6.029,4330,1995,193.124,59.066,13.292
2019-07-06T16:17:10,42.805,6.029,4330,1995,193.071,59.048,13.291
2019-07-06T16:20:10,42.805,6.029,4330,1995,193.157,59.074,13.291
2019-07-06T16:23:10,42.805,6.029,4330,1995,193.180,59.081,13.291
2019-07-06T16:26:10,42.805,6.029,4330,1995,193.141,59.069,13.291
2019-07-06T16:29:10,42.805,6.029,4330,1995,193.135,59.067,13.291
2019-07-06T16:32:10,42.805,6.029,4330,1995,193.128,59.065,13.291
2019-07-06T16:35:10,42.805,6.029,4330,1995,192.924,59.003,13.291
2019-07-06T16:38:10,42.805,6.029,4330,1995,192.739,58.946,13.291
2019-07-06T16:41:10,42.805,6.029,4330,1995,192.681,58.928,13.291
2019-07-06T16:44:10,42.805,6.029,4330,1995,192.709,58.936,13.291
2019-07-06T16:47:10,42.805,6.029,4330,1995,192.655,58.921,13.291
2019-07-06T16:50:10,42.805,6.029,4330,1995,192.674,58.926,13.291
2019-07-06T16:53:10,42.805,6.029,4330,1995,192.669,58.924,13.290
2019-07-06T16:56:10,42.805,6.029,4330,1995,192.724,58.940,13.290
2019-07-06T16:59:10,42.805,6.029,4330,1995,192.809,58.967,13.291
2019-07-06T17:02:10,42.805,6.029,4330,1995,192.766,58.954,13.290
2019-07-06T17:05:10,42.805,6.029,4330,1995,192.843,58.977,13.290
2019-07-06T17:08:10,42.805,6.029,4330,1995,192.864,58.983,13.290
2019-07-06T17:11:10,42.805,6.029,4330,1995,192.838,58.975,13.290
2019-07-06T17:14:10,42.805,6.029,4330,1995,192.844,58.978,13.290
2019-07-06T17:17:10,42.805,6.029,4330,1995,192.845,58.977,13.290
2019-07-06T17:20:10,42.805,6.029,4330,1995,192.919,59.000,13.290
2019-07-06T17:26:10,42.805,6.029,4330,1995,192.948,59.007,13.289
2019-07-06T17:29:10,42.805,6.029,4330,1995,192.931,59.003,13.289
2019-07-06T17:32:10,42.805,6.029,4330,1995,192.902,58.996,13.291
2019-07-06T17:35:10,42.805,6.029,4330,1995,192.822,58.972,13.291
2019-07-06T17:38:10,42.805,6.029,4330,1995,192.822,58.971,13.290
2019-07-06T17:41:10,42.805,6.029,4330,1995,192.874,58.987,13.291
2019-07-06T17:44:10,42.805,6.029,4330,1995,192.818,58.970,13.291
2019-07-06T17:47:10,42.805,6.029,4330,1995,192.768,58.954,13.290
2019-07-06T17:50:10,42.805,6.029,4330,1995,192.797,58.963,13.290
2019-07-06T17:53:10,42.805,6.029,4330,1995,192.830,58.973,13.290
2019-07-06T17:56:10,42.805,6.029,4330,1995,192.858,58.981,13.290
2019-07-06T17:59:10,42.805,6.029,4330,1995,192.856,58.980,13.290
2019-07-06T18:02:10,42.805,6.029,4330,1995,192.936,59.005,13.290
2019-07-06T18:05:10,42.805,6.029,4330,1995,192.939,59.006,13.290
2019-07-06T18:08:10,42.805,6.029,4330,1995,192.935,59.005,13.290
2019-07-06T18:11:10,42.805,6.029,4330,1995,192.809,58.967,13.290
2019-07-06T18:14:10,42.805,6.029,4330,1995,192.867,58.985,13.290
2019-07-06T18:17:10,42.805,6.029,4330,1995,192.852,58.980,13.291
2019-07-06T18:20:10,42.805,6.029,4330,1995,192.916,59.000,13.291
2019-07-06T18:23:10,42.805,6.029,4330,1995,192.890,58.992,13.291
2019-07-06T18:26:10,42.805,6.029,4330,1995,192.860,58.984,13.291
2019-07-06T18:29:10,42.805,6.029,4330,1995,192.774,58.958,13.291